Location: Robert Ferguson Observatory
(38.4385°N, 122.5078°W)
Time: 00:02:29
(UTC-07:00)

Daily predictions for brighter satellites

Satellite Brightness Start Highest point End
(mag) Time Altitude Azimuth Time Altitude Azimuth Time Altitude Azimuth
ATLAS 3B R/B 3.2 00:18:05 10° NNW 00:23:38 52° NNE 00:23:38 52° NNE
Cosmos 2369 Rocket 3.6 00:45:37 10° NNW 00:48:57 33° N 00:48:57 33° N
USA 238 DEB 4.2 00:44:52 10° NNW 00:50:45 58° N 00:50:45 58° N
USA 238 4.2 00:44:58 10° NNW 00:50:53 58° N 00:50:53 58° N
Cosmos 1943 Rocket 3.9 00:49:17 10° N 00:52:59 26° NE 00:52:59 26° NE
CZ-2C R/B 4.4 01:27:10 10° N 01:30:24 28° NW 01:30:24 28° NW
NOSS 3-4 (A) 4.2 01:50:30 49° NE 01:50:30 49° NE 01:55:05 10° NNE
NOSS 3-4 (C) 4.2 01:50:37 48° NE 01:50:37 48° NE 01:55:11 10° NE
NOSS 3-2 (A) 4.1 01:54:40 10° NNW 02:01:14 70° NW 02:01:14 70° NW
BREEZE-M DEB (TANK) 4.4 02:19:45 34° NE 02:19:45 34° NE 02:24:50 10° NE
COSMOS 2455 3.5 02:19:20 10° NNW 02:23:49 50° N 02:23:49 50° N
BREEZE M DEB (TANK) 4.3 02:14:41 10° NW 02:34:32 71° WSW 02:34:32 71° WSW
Cosmos 1943 Rocket 4.1 02:32:43 10° NW 02:34:29 19° NW 02:34:29 19° NW
USA 215 3.2 02:43:57 10° NE 02:50:27 70° NW 02:50:44 69° WNW
Cosmos 2082 Rocket 4.2 02:55:15 17° ESE 02:56:21 18° E 03:00:07 10° ENE
Lacrosse 5 rocket 2.9 02:59:03 38° NNE 02:59:03 38° NNE 03:02:07 10° NE
SL-16 R/B 3.4 02:56:11 29° ESE 02:58:50 44° ENE 03:04:36 10° N
Cosmos 2056 Rocket 4.0 02:53:49 10° N 02:58:34 56° NE 02:58:34 56° NE
ADEOS Rocket 4.0 02:55:21 10° NNE 03:01:20 42° E 03:03:00 37° SE
CBERS-1 4.4 03:02:39 10° NNE 03:06:51 61° NNE 03:06:51 61° NNE
SL-08 R/B 4.2 03:11:01 44° NNW 03:11:01 44° NNW 03:14:18 10° NNW
CENTAUR R/B 3.2 03:03:15 10° NNW 03:11:15 76° ENE 03:19:42 10° SE
IRS-P3 4.4 03:06:33 10° N 03:11:04 59° NNW 03:11:04 59° NNW
COSMOS 2406 3.9 03:15:10 44° NW 03:15:10 44° NW 03:20:14 10° N
USA 267 4.2 03:15:23 10° ESE 03:21:33 46° NE 03:27:43 10° NW
Cosmos 1953 Rocket 4.2 03:23:04 54° NNE 03:23:04 54° NNE 03:26:35 10° N
IRS-1D 3.7 03:21:49 10° NNE 03:27:03 65° E 03:27:28 62° SE
ARIANE 5 R/B 2.7 03:24:40 10° NNE 03:29:52 64° ESE 03:30:20 61° SE
Resurs 1-4 Rocket 2.1 03:26:55 10° NNE 03:32:12 71° ESE 03:32:41 66° SE
Cosmos 1452 Rocket 4.3 03:28:34 10° N 03:33:40 49° ENE 03:37:21 18° SE
Cosmos 1470 3.7 03:32:21 10° N 03:35:44 47° NE 03:35:44 47° NE
DNEPR-1 R/B 4.0 03:32:48 10° NNW 03:36:59 57° ENE 03:38:09 42° ESE
ADEOS 3.5 03:33:00 10° NNE 03:38:15 79° ESE 03:38:47 70° SSE
NOSS 2-2 (D) 4.5 03:38:53 38° NNW 03:38:53 38° NNW 03:42:38 10° NNE
COSMOS 2487 3.6 03:46:56 44° NNE 03:46:56 44° NNE 03:49:29 10° NNE
UNK 3.7 03:47:58 72° NW 03:47:58 72° NW 03:52:12 10° NNW
Cosmos 1733 3.7 03:48:22 10° N 03:51:25 56° N 03:51:25 56° N
UNKNOWN OBJECT B 3.2 03:51:39 10° NNE 03:55:39 57° E 03:56:04 54° SE
CZ-2D R/B 2.0 03:51:35 10° N 03:56:51 70° WNW 03:57:40 59° SW
Cosmos 1727 Rocket 3.9 03:56:16 41° S 03:58:37 89° E 04:04:48 10° N
Cosmos 1953 3.9 03:54:56 10° NNW 03:56:52 24° NW 03:56:52 24° NW
USA 161 3.5 03:59:31 27° E 03:59:42 27° ENE 04:02:09 10° NNE
Cosmos 1697 Rocket 4.0 03:57:30 10° N 04:02:46 39° ENE 04:07:59 10° SE
GPS 2-05 Rocket1 4.0 04:08:58 35° SE 04:08:58 35° SE 04:11:22 10° E
VEP-3 4.3 04:06:26 29° SW 04:10:38 36° SSW 04:16:38 10° SE
Cosmos 1153 Rocket 4.4 04:05:06 10° N 04:11:16 88° E 04:16:10 17° S
Cosmos 1269 Rocket 4.2 04:11:08 35° S 04:13:22 71° ESE 04:18:38 10° NNE
Cosmos 2278 3.6 04:11:55 10° NNW 04:17:39 75° WSW 04:23:19 10° SSE
Okean O Rocket 3.6 04:15:20 10° NE 04:19:01 25° E 04:22:40 10° SSE
Cosmos-2242 3.2 04:16:40 10° NNW 04:20:56 49° W 04:21:14 48° WSW
COBE Rocket 4.3 04:17:05 10° N 04:21:51 46° WNW 04:22:56 39° WSW
Cosmos 1459 Rocket 4.4 04:16:11 10° N 04:22:19 62° E 04:28:31 10° SSE
Cosmos 1656 3.6 04:16:54 10° NNW 04:22:21 81° ENE 04:27:47 10° SSE
Cosmos 839 Rocket 4.3 04:16:22 10° NW 04:22:42 55° WSW 04:30:19 10° S
Cosmos 2369 3.7 04:21:06 10° NNW 04:26:47 64° WSW 04:32:25 10° S
Intercosmos 25 3.8 04:21:05 10° N 04:27:22 74° W 04:29:32 29° S
Cosmos 158 Rocket 3.9 04:25:34 32° SSW 04:27:58 87° ESE 04:33:09 10° NNE
GEOS 3 Rocket 3.9 04:24:26 10° NNE 04:29:37 56° NW 04:31:58 31° WSW
ADEOS II 3.4 04:25:43 10° NNE 04:30:35 37° E 04:35:25 10° SSE
Cosmos 389 Rocket 4.0 04:27:25 10° NNW 04:29:24 24° WNW 04:29:24 24° WNW
Cosmos 1833 Rocket 2.6 04:29:24 32° SW 04:32:02 73° WNW 04:37:41 10° NNE
Cosmos 1605 Rocket 4.5 04:30:14 10° NNW 04:35:52 38° W 04:38:19 27° SW
Lacrosse 5 rocket 4.0 04:34:57 10° WNW 04:37:35 15° NNW 04:40:14 10° N
Cosmos 1842 Rocket 3.5 04:33:56 10° N 04:38:21 77° W 04:42:07 14° S
Cosmos 1980 Rocket 3.3 04:32:58 10° N 04:38:27 46° ENE 04:43:51 10° SE
Cosmos 2082 Rocket 2.4 04:37:06 29° SW 04:39:54 57° WNW 04:45:32 10° NNE
Cosmos 2221 3.8 04:36:37 10° N 04:40:41 41° E 04:44:42 10° SSE
Cosmos 1378 3.7 04:40:38 36° W 04:41:08 38° W 04:44:40 10° N
Landsat 4 3.7 04:38:09 10° SSE 04:41:53 79° ENE 04:45:37 10° N
SL-16 R/B 3.4 04:41:15 25° WSW 04:42:34 27° W 04:47:43 10° NW
CZ-2D R/B 3.9 04:40:37 10° N 04:44:25 41° WNW 04:45:39 32° WSW
ADEOS Rocket 4.1 04:41:16 10° N 04:46:39 31° WNW 04:49:58 21° WSW
Cosmos 1707 4.3 04:52:51 19° W 04:53:07 19° WNW 04:55:57 10° NNW
CZ-4B R/B 3.9 04:48:09 10° NNE 04:53:22 51° E 04:58:28 10° S
Timation 2 Rocket 4.1 04:53:35 18° SW 04:58:39 69° WNW 05:05:04 10° NNE
CENTAUR R/B 4.0 04:55:12 10° WNW 05:01:26 25° WSW 05:07:51 10° SSW
Orbus 7S? 2.5 05:00:22 10° NW 05:03:18 54° SW 05:05:53 10° SSE
Cosmos 972 Rocket 4.2 04:58:06 10° NNW 05:04:19 72° WSW 05:09:47 10° S
USA 267 3.4 04:58:07 10° SSE 05:04:27 52° SW 05:10:49 10° NW
NOSS 8 (H) 4.5 05:03:50 23° SW 05:05:44 62° NW 05:09:13 10° NNE
MOS 1 Rocket 3.9 05:01:57 10° N 05:06:00 37° WNW 05:09:00 17° SW
Cosmos 1908 4.5 05:03:13 10° N 05:06:57 44° E 05:10:40 10° SSE
ARIANE 5 R/B 4.3 05:05:23 10° NNW 05:08:24 16° WNW 05:10:41 12° W
Cosmos 2100 Rocket 4.2 05:05:10 10° NNW 05:11:04 48° W 05:16:55 10° SSW
Resurs 1-4 Rocket 4.0 05:08:40 10° NNW 05:11:24 14° WNW 05:13:46 11° W
Cosmos 2173 Rocket 4.1 05:05:29 10° NNW 05:11:32 53° W 05:17:29 10° SSW
PAYLOAD B 4.3 05:06:14 10° NNE 05:11:50 86° ESE 05:17:21 10° SSW
In-Cosmos 22 4.1 05:08:50 10° SSW 05:14:05 64° W 05:19:20 10° N
CZ-4B R/B 3.1 05:12:03 10° N 05:16:26 70° WNW 05:20:54 10° SSW
Meteor 2-1 Rocket 4.4 05:11:26 10° NNW 05:17:00 57° W 05:22:39 10° S
MTI 4.0 05:20:38 10° SSE 05:23:51 74° ENE 05:27:05 10° N
Cosmos 1864 Rocket 4.5 05:25:38 10° N 05:31:47 77° W 05:37:57 10° S
BREEZE-M DEB 3.9 05:30:30 10° SSW 05:34:52 29° SSE 05:37:01 10° E
Cosmos 1076 Rocket 3.6 05:31:04 10° SSW 05:35:12 54° W 05:39:22 10° N
TSX-5 4.4 05:32:54 10° SSW 05:37:16 81° WNW 05:43:03 10° NNE
Okean 3 Rocket 4.3 05:33:17 10° SW 05:37:19 35° WNW 05:41:24 10° N
Cosmos 1184 Rocket 2.9 05:34:14 10° S 05:37:34 85° E 05:40:56 10° N
Okean-O 3.6 05:33:52 10° NNE 05:38:12 50° E 05:42:29 10° S
Aureole 2 4.1 05:40:46 10° NNW 05:43:44 86° ENE 05:46:53 10° SSE
Cosmos 2360 4.3 05:39:13 10° NNW 05:44:52 61° WSW 05:50:27 10° S
GPS 2-05 Rocket1 3.2 05:42:12 10° W 05:45:38 47° S 05:48:59 10° ESE
Gbstr 26 Del rocket 4.2 05:37:58 10° NW 05:45:39 86° SW 05:51:59 10° SE
Cosmos 1110 Rocket 4.2 05:40:28 10° NNW 05:45:39 54° WSW 05:50:46 10° S
Cosmos 1697 Rocket 3.6 05:41:53 10° NW 05:46:29 26° WSW 05:51:04 10° SSW
Cosmos 1766 Rocket 3.7 05:43:31 10° SSW 05:47:56 59° W 05:52:22 10° N
Cosmos 2123 Rocket 4.4 05:45:01 10° SSW 05:51:02 46° WNW 05:57:03 10° N
